Haines, AK

8:50 AM AKDT on April 27, 2017 (GMT -0800)
Haines

Weather History for PAHN - April, 2013

Change the Weather History Date:

Saturday, April 20, 2013

  Actual Average Record
Temperature  
Mean Temperature 36 °F -  
Max Temperature 45 °F 47 °F 67 °F (1978)
Min Temperature 28 °F 34 °F 27 °F (1975)
Degree Days  
Heating Degree Days 29    
Moisture  
Dew Point 13 °F    
Average Humidity 39    
Maximum Humidity 49    
Minimum Humidity 28    
Precipitation  
Precipitation 0.00 in - - ()
Sea Level Pressure  
Sea Level Pressure 30.48 in    
Wind  
Wind Speed 12 mph (WNW)    
Max Wind Speed 18 mph    
Max Gust Speed 22 mph    
Visibility 10 miles    
Events      
Averages and records for this station are not official NWS values.
T = Trace of Precipitation, MM = Missing Value Source: NWS Daily Summary

Daily Weather History Graph

Daily Weather History Graph

Search for Another Location

Airport or City:

Trip Planner

Search our weather history database for the weather conditions in past years. The results will help you decide how hot, cold, wet, or windy it might be!

Date:

Astronomy

Apr. 20, 2013 Rise Set
Actual Time 5:32 AM AKDT 8:30 PM AKDT
Civil Twilight 4:45 AM AKDT 9:17 PM AKDT
Nautical Twilight 3:42 AM AKDT 10:22 PM AKDT
Astronomical Twilight 2:03 AM AKDT 12:07 AM AKDT
Moon 2:12 PM AKDT (4/20) 3:41 AM AKDT (4/20)
Length of Visible Light 16h 32m
Length of Day
14h 58m
Waxing Gibbous, 72% of the Moon is Illuminated
Apr 20
Waxing Gibbous
Apr 25
Full
May 2
Last Quarter
May 9
New
May 17
First Quarter

Hourly Weather History & Observations

Time (AKDT) Temp. Windchill Dew Point Humidity Pressure Visibility Wind Dir Wind Speed Gust Speed Precip Events Conditions
12:54 AM 32.0 °F 23.0 °F 12.0 °F 44% 30.43 in 10.0 mi WNW 11.5 mph - N/A   Clear
1:54 AM 30.9 °F 22.2 °F 12.0 °F 46% 30.45 in 10.0 mi NW 10.4 mph - N/A   Clear
2:54 AM 30.9 °F 21.7 °F 10.9 °F 43% 30.46 in 10.0 mi NW 11.5 mph - N/A   Clear
3:54 AM 30.0 °F 22.4 °F 12.0 °F 47% 30.47 in 10.0 mi WNW 8.1 mph - N/A   Clear
4:54 AM 28.9 °F 18.6 °F 12.0 °F 49% 30.48 in 10.0 mi WNW 12.7 mph - N/A   Clear
5:54 AM 28.9 °F 20.4 °F 12.0 °F 49% 30.49 in 10.0 mi NW 9.2 mph - N/A   Clear
6:54 AM 28.9 °F 18.6 °F 12.0 °F 49% 30.50 in 10.0 mi NW 12.7 mph - N/A   Clear
7:54 AM 30.0 °F 20.5 °F 12.0 °F 47% 30.51 in 10.0 mi NW 11.5 mph - N/A   Clear
8:54 AM 33.1 °F 24.4 °F 10.9 °F 40% 30.51 in 10.0 mi NW 11.5 mph - N/A   Clear
9:54 AM 37.0 °F 27.0 °F 12.0 °F 36% 30.51 in 10.0 mi West 18.4 mph - N/A   Clear
10:54 AM 37.9 °F 28.5 °F 12.0 °F 35% 30.50 in 10.0 mi WNW 17.3 mph - N/A   Clear
11:54 AM 39.9 °F 31.8 °F 12.0 °F 32% 30.50 in 10.0 mi West 15.0 mph - N/A   Clear
12:54 PM 42.1 °F 34.5 °F 12.9 °F 31% 30.49 in 10.0 mi West 15.0 mph 21.9 mph N/A   Clear
1:54 PM 43.0 °F 36.8 °F 12.9 °F 30% 30.48 in 10.0 mi West 11.5 mph - N/A   Clear
2:54 PM 44.1 °F 38.1 °F 12.9 °F 28% 30.48 in 10.0 mi West 11.5 mph - N/A   Clear
3:54 PM 44.1 °F 38.1 °F 12.9 °F 28% 30.47 in 10.0 mi WNW 11.5 mph - N/A   Clear
4:54 PM 44.1 °F 38.6 °F 14.0 °F 30% 30.46 in 10.0 mi NW 10.4 mph - N/A   Clear
5:54 PM 43.0 °F 37.2 °F 14.0 °F 31% 30.45 in 10.0 mi WNW 10.4 mph - N/A   Clear
6:54 PM 42.1 °F 34.9 °F 14.0 °F 32% 30.45 in 10.0 mi WNW 13.8 mph - N/A   Clear
7:54 PM 39.9 °F 32.9 °F 12.9 °F 33% 30.45 in 10.0 mi NW 11.5 mph - N/A   Clear
8:54 PM 37.9 °F 31.5 °F 12.9 °F 36% 30.45 in 10.0 mi NW 9.2 mph - N/A   Clear
9:54 PM 37.0 °F 31.0 °F 14.0 °F 39% 30.47 in 10.0 mi NW 8.1 mph - N/A   Clear
10:54 PM 35.1 °F 28.6 °F 16.0 °F 46% 30.47 in 10.0 mi NW 8.1 mph - N/A   Clear
11:54 PM 34.0 °F 25.5 °F 15.1 °F 46% 30.48 in 10.0 mi NW 11.5 mph 18.4 mph N/A   Clear